Погода в Монтеверде

Коста-Рика     10°18′02″N   84°47′58″W
темп.,
°C
ветер,
м/с
пор.,
м/с
влажн.,
%
обл.,
%
осадки,
мм/ч
давл.,
гПа
погр.,
м
26 сентября, вс
вс2600:00+19св3496100 0.3 1014224
03:00+19св3596100 0.1 1012227
06:00+20св3596100 0.2 1013387
09:00+21всв3492100 0.2 1015355
12:00+25св247499 0.6 1013947
15:00+22св2488100 5.3 1012449
18:00+20св3495100 6.1 1014192
21:00+20св229599 0.9 101778
27 сентября, пн
пн2700:00+19св3495100 1.1 1015114
03:00+19св3596100 0.0 1013185
06:00+19св3495100 0.1 1014144
09:00+23всв247793 0.3 1015820
12:00+23св2383100 3.4 1014704
15:00+20св3495100 4.1 1012201
18:00+20св2397100 5.0 1014224
21:00+19ссв2295100 0.3 101546
28 сентября, вт
вт2800:00+18св3392100 0.3 101464
03:00+18св228996 0.0 101351
06:00+19св348979 0.0 101485
09:00+24всв126924 0.0 1015743
12:00+24юз117863 2.1 1013667
15:00+21всв129280 5.6 1011171
18:00+20всв229489 9.4 101372
21:00+19св2293100 0.4 101569
29 сентября, ср
ср2900:00+19св1191100 0.5 101316
03:00+19св119188 0.0 101117
06:00+19св228928 0.0 101330
09:00+24св017128 0.1 1014841
12:00+23ююз1181100 3.6 1012559
15:00+22юз1190100 9.4 1011296
18:00+20в1199100 24.2 101284
21:00+19юв1198100 19.0 101573
30 сентября, чт
чт3000:00+19юв1198100 21.1 101347
03:00+19с009389 0.0 101211
06:00+19св21919 0.0 101222
09:00+24в017335 0.0 1014837
12:00+23юв118472 4.3 1012515
15:00+21ююв1191100 8.6 1010236
18:00+19юв2297100 15.3 101273
21:00+19в1195100 3.3 101437